Location: Poughquag
(41.6090°N, 73.6820°W)
Time: 14:55:17
(UTC-04:00)

NOAA 18 - Pass Details

Date: 15 September 2024
Orbit: 837 x 859 km, 98.9° (Epoch: 12 October)

Event Time Altitude Azimuth Distance (km) Brightness Sun altitude
Exits shadow 22:56:21 23° 354° (N) 1,737 7.2 -39.0°
Drops below altitude 10° 22:58:20 10° 351° (N) 2,486 8.2 -39.2°
Sets 23:00:43 0° 349° (N) 3,423 9.1 -39.5°
